When you browse on this site, cookies collect data to enhance your experience and personalize the content and advertising you see.
Visit our Privacy Policy to learn more. By continuing to use the site, you agree to this use of cookies and data.
  • In Romania
  • List of Countries
  • For 7 days
  • Water Temperature
  • Satellite Maps
  • Weather Map
  • Weather Widgets
  • user-avatar
    Login

    Hourly Weather Bolshie Karkaly

    Today, 21 May, Tuesday

    Time Temperature Precipitation Wind Pressure Humidity
    00:00 +2°C° 0 mm 2 mps 729 mmHg 85%
    01:00 +2°C° 0 mm 2 mps 730 mmHg 87%
    02:00 +2°C° 0 mm 2 mps 730 mmHg 88%
    03:00 0°C° 0 mm 3 mps 730 mmHg 89%
    04:00 0°C° 0 mm 3 mps 729 mmHg 90%
    05:00 +2°C° 0 mm 3 mps 730 mmHg 85%
    06:00 +3°C° 0 mm 3 mps 730 mmHg 80%
    07:00 +4°C° 0 mm 4 mps 731 mmHg 75%
    08:00 +6°C° 0.2 mm 4 mps 731 mmHg 67%
    09:00 +7°C° 0.2 mm 5 mps 731 mmHg 59%
    10:00 +8°C° 0 mm 6 mps 731 mmHg 51%
    11:00 +9°C° 0.1 mm 5 mps 731 mmHg 51%
    12:00 +9°C° 0.1 mm 5 mps 731 mmHg 50%
    13:00 +10°C° 0.1 mm 5 mps 731 mmHg 49%
    14:00 +10°C° 0.1 mm 5 mps 731 mmHg 50%
    15:00 +10°C° 0.1 mm 5 mps 731 mmHg 51%
    16:00 +10°C° 0.1 mm 5 mps 731 mmHg 52%
    17:00 +10°C° 0.1 mm 4 mps 731 mmHg 57%
    18:00 +10°C° 0.1 mm 4 mps 731 mmHg 61%
    19:00 +9°C° 0.1 mm 3 mps 732 mmHg 66%
    20:00 +8°C° 0 mm 3 mps 732 mmHg 69%
    21:00 +7°C° 0 mm 3 mps 732 mmHg 72%
    22:00 +5°C° 0 mm 2 mps 732 mmHg 75%
    23:00 +5°C° 0 mm 2 mps 732 mmHg 77%

    Tomorrow, 22 May, Wednesday

    Time Temperature Precipitation Wind Pressure Humidity
    00:00 +5°C° 0 mm 2 mps 732 mmHg 78%
    01:00 +3°C° 0 mm 3 mps 732 mmHg 80%
    02:00 +3°C° 0 mm 3 mps 732 mmHg 81%
    03:00 +3°C° 0 mm 3 mps 732 mmHg 82%
    04:00 +2°C° 0 mm 3 mps 732 mmHg 83%
    05:00 +4°C° 0 mm 3 mps 732 mmHg 79%
    06:00 +5°C° 0 mm 3 mps 732 mmHg 75%
    07:00 +8°C° 0 mm 3 mps 732 mmHg 71%
    08:00 +9°C° 0 mm 3 mps 732 mmHg 64%
    09:00 +11°C° 0 mm 4 mps 732 mmHg 57%
    10:00 +12°C° 0 mm 4 mps 732 mmHg 49%
    11:00 +13°C° 0 mm 4 mps 732 mmHg 48%
    12:00 +14°C° 0 mm 4 mps 732 mmHg 48%
    13:00 +14°C° 0 mm 4 mps 732 mmHg 47%
    14:00 +14°C° 0 mm 4 mps 732 mmHg 48%
    15:00 +14°C° 0 mm 4 mps 731 mmHg 50%
    16:00 +14°C° 0 mm 4 mps 731 mmHg 51%
    17:00 +14°C° 0 mm 3 mps 731 mmHg 57%
    18:00 +13°C° 0 mm 3 mps 731 mmHg 63%
    19:00 +12°C° 0 mm 3 mps 730 mmHg 69%
    20:00 +11°C° 0 mm 3 mps 730 mmHg 76%
    21:00 +10°C° 0 mm 3 mps 730 mmHg 83%
    22:00 +8°C° 0 mm 3 mps 730 mmHg 90%
    23:00 +8°C° 0 mm 3 mps 730 mmHg 92%

    Day after tomorrow, 23 May, Thursday

    Time Temperature Precipitation Wind Pressure Humidity
    00:00 +8°C° 0 mm 3 mps 729 mmHg 95%
    01:00 +8°C° 0 mm 3 mps 729 mmHg 97%
    02:00 +8°C° 1.6 mm 3 mps 729 mmHg 97%
    03:00 +9°C° 1.6 mm 3 mps 729 mmHg 97%
    04:00 +9°C° 1.6 mm 3 mps 728 mmHg 97%
    05:00 +10°C° 0.5 mm 4 mps 728 mmHg 95%
    06:00 +11°C° 0.5 mm 4 mps 728 mmHg 93%
    07:00 +12°C° 0.5 mm 5 mps 727 mmHg 91%
    08:00 +13°C° 0.2 mm 6 mps 727 mmHg 84%
    09:00 +15°C° 0.2 mm 7 mps 727 mmHg 77%
    10:00 +17°C° 0.2 mm 9 mps 727 mmHg 70%
    11:00 +18°C° 0.1 mm 9 mps 727 mmHg 65%
    12:00 +18°C° 0.1 mm 10 mps 726 mmHg 59%
    13:00 +19°C° 0.1 mm 10 mps 726 mmHg 54%
    14:00 +19°C° 0 mm 10 mps 726 mmHg 54%
    15:00 +19°C° 0 mm 10 mps 726 mmHg 54%
    16:00 +18°C° 0 mm 10 mps 726 mmHg 53%
    17:00 +18°C° 0 mm 9 mps 725 mmHg 57%
    18:00 +17°C° 0 mm 8 mps 725 mmHg 61%
    19:00 +16°C° 0 mm 7 mps 724 mmHg 65%
    20:00 +15°C° 0 mm 7 mps 724 mmHg 62%
    21:00 +14°C° 0 mm 7 mps 724 mmHg 60%
    22:00 +12°C° 0 mm 7 mps 724 mmHg 57%
    23:00 +12°C° 0 mm 7 mps 723 mmHg 58%

    24 May, Friday

    Time Temperature Precipitation Wind Pressure Humidity
    00:00 +11°C° 0 mm 6 mps 723 mmHg 60%
    01:00 +11°C° 0 mm 6 mps 722 mmHg 61%
    02:00 +11°C° 0.1 mm 6 mps 722 mmHg 64%
    03:00 +11°C° 0.1 mm 6 mps 722 mmHg 67%
    04:00 +11°C° 0.1 mm 6 mps 722 mmHg 70%
    05:00 +12°C° 2.1 mm 5 mps 722 mmHg 78%
    06:00 +10°C° 2.1 mm 5 mps 722 mmHg 86%
    07:00 +10°C° 2.1 mm 5 mps 722 mmHg 93%
    08:00 +9°C° 2.4 mm 5 mps 722 mmHg 93%
    09:00 +9°C° 2.4 mm 5 mps 722 mmHg 93%
    10:00 +8°C° 2.4 mm 6 mps 722 mmHg 93%
    11:00 +9°C° 0 mm 5 mps 723 mmHg 86%
    12:00 +10°C° 0 mm 5 mps 723 mmHg 78%
    13:00 +12°C° 0 mm 5 mps 724 mmHg 70%
    14:00 +12°C° 0 mm 5 mps 724 mmHg 67%
    15:00 +12°C° 0 mm 5 mps 725 mmHg 63%
    16:00 +12°C° 0 mm 5 mps 725 mmHg 59%
    17:00 +10°C° 0 mm 5 mps 725 mmHg 62%
    18:00 +9°C° 0 mm 5 mps 726 mmHg 65%
    19:00 +8°C° 0 mm 5 mps 726 mmHg 68%
    20:00 +7°C° 0 mm 4 mps 727 mmHg 71%
    21:00 +6°C° 0 mm 4 mps 727 mmHg 74%
    22:00 +4°C° 0 mm 3 mps 728 mmHg 77%
    23:00 +4°C° 0 mm 3 mps 728 mmHg 77%

    25 May, Saturday

    Time Temperature Precipitation Wind Pressure Humidity
    00:00 +3°C° 0 mm 3 mps 729 mmHg 77%
    01:00 +3°C° 0 mm 3 mps 729 mmHg 77%
    02:00 +2°C° 0 mm 3 mps 729 mmHg 77%
    03:00 +3°C° 0 mm 2 mps 730 mmHg 77%
    04:00 +2°C° 0 mm 2 mps 730 mmHg 77%
    05:00 +2°C° 0 mm 3 mps 730 mmHg 72%
    06:00 +4°C° 0 mm 3 mps 731 mmHg 68%
    07:00 +5°C° 0 mm 4 mps 732 mmHg 63%
    08:00 +6°C° 0 mm 4 mps 732 mmHg 59%
    09:00 +7°C° 0 mm 5 mps 732 mmHg 55%
    10:00 +7°C° 0 mm 5 mps 733 mmHg 51%
    11:00 +8°C° 0 mm 5 mps 733 mmHg 50%
    12:00 +9°C° 0 mm 5 mps 733 mmHg 49%
    13:00 +10°C° 0 mm 5 mps 733 mmHg 48%
    14:00 +11°C° 0 mm 4 mps 733 mmHg 49%
    15:00 +11°C° 0 mm 4 mps 733 mmHg 49%
    16:00 +12°C° 0 mm 4 mps 733 mmHg 49%
    17:00 +11°C° 0 mm 3 mps 733 mmHg 54%
    18:00 +12°C° 0 mm 2 mps 733 mmHg 59%
    19:00 +10°C° 0 mm 2 mps 734 mmHg 63%
    20:00 +9°C° 0 mm 2 mps 734 mmHg 66%
    21:00 +8°C° 0 mm 1 mps 734 mmHg 69%
    22:00 +6°C° 0 mm 1 mps 734 mmHg 72%
    23:00 +6°C° 0 mm 1 mps 734 mmHg 73%

    26 May, Sunday

    Time Temperature Precipitation Wind Pressure Humidity
    00:00 +5°C° 0 mm 2 mps 734 mmHg 74%
    01:00 +4°C° 0 mm 2 mps 734 mmHg 75%
    02:00 +4°C° 0 mm 2 mps 734 mmHg 75%
    03:00 +4°C° 0 mm 2 mps 735 mmHg 74%
    04:00 +4°C° 0 mm 2 mps 735 mmHg 74%
    05:00 +5°C° 0 mm 2 mps 735 mmHg 71%
    06:00 +5°C° 0 mm 3 mps 735 mmHg 68%
    07:00 +8°C° 0 mm 3 mps 735 mmHg 66%
    08:00 +8°C° 0 mm 4 mps 735 mmHg 62%
    09:00 +11°C° 0 mm 4 mps 734 mmHg 58%
    10:00 +12°C° 0 mm 5 mps 734 mmHg 54%
    11:00 +13°C° 0 mm 5 mps 734 mmHg 52%
    12:00 +15°C° 0 mm 5 mps 733 mmHg 50%
    13:00 +16°C° 0 mm 5 mps 733 mmHg 49%
    14:00 +16°C° 0 mm 5 mps 733 mmHg 50%
    15:00 +17°C° 0 mm 5 mps 732 mmHg 50%
    16:00 +17°C° 0 mm 5 mps 732 mmHg 51%
    17:00 +17°C° 0 mm 4 mps 731 mmHg 57%
    18:00 +17°C° 0 mm 4 mps 731 mmHg 63%
    19:00 +16°C° 0 mm 3 mps 731 mmHg 68%
    20:00 +14°C° 0.1 mm 3 mps 730 mmHg 70%
    21:00 +14°C° 0.1 mm 3 mps 730 mmHg 72%
    22:00 +13°C° 0.1 mm 3 mps 729 mmHg 74%
    23:00 +13°C° 0 mm 4 mps 729 mmHg 72%
    Show more